EW3553 Weather Reports


time (UTC)temp
C
wind
direction
speed
KPH
gust
KPH
rain 1hr
cm
rain 24hr
cm
rain mn
cm
humidity
%
barometer
mb
20260506014506 15 170 3.2 19.3 0.00 0.00 0.00 80 1011.0
20260506013003 15 146 4.8 22.5 0.00 0.00 0.00 79 1010.9
20260506011623 15 155 4.8 25.7 0.00 0.00 0.00 79 1010.8
20260506004549 16 211 6.4 22.5 0.00 0.00 0.00 77 1010.5
20260506003045 16 182 4.8 17.7 0.00 0.00 0.00 76 1010.3
20260506001543 17 178 4.8 12.9 0.00 0.00 0.00 75 1010.0
20260506000041 16 143 4.8 16.1 0.00 0.00 0.00 74 1009.8
20260505234532 17 202 8.0 20.9 0.00 0.00 0.00 74 1009.6
20260505233032 17 209 4.8 19.3 0.00 0.00 0.00 72 1009.2
20260505231527 17 170 8.0 17.7 0.00 0.00 0.00 73 1008.9
20260505230019 17 161 9.7 25.7 0.00 0.00 0.00 74 1008.9
20260505224514 16 178 6.4 19.3 0.00 0.00 0.00 74 1009.0
20260505223016 16 211 8.0 29.0 0.00 0.00 0.00 74 1008.8
20260505221505 17 163 9.7 25.7 0.00 0.00 0.00 72 1008.8
20260505220108 17 167 8.0 22.5 0.00 0.00 0.00 72 1008.6
20260505214558 17 187 8.0 25.7 0.00 0.00 0.00 71 1008.6
20260505213050 17 174 8.0 29.0 0.00 0.00 0.00 71 1008.7
20260505211546 17 221 8.0 25.7 0.00 0.00 0.00 71 1008.4
20260505210049 17 200 9.7 25.7 0.00 0.00 0.00 72 1008.4
20260505204542 17 226 6.4 25.7 0.00 0.00 0.00 72 1008.5
20260505203034 18 203 6.4 22.5 0.00 0.00 0.00 71 1008.6
20260505201528 18 165 6.4 12.9 0.00 0.00 0.00 70 1008.6
20260505200024 18 191 8.0 22.5 0.00 0.00 0.00 71 1008.8
20260505194522 18 157 8.0 19.3 0.00 0.00 0.00 71 1009.1
20260505193025 18 211 8.0 24.1 0.00 0.00 0.00 69 1009.2
20260505191512 18 115 6.4 17.7 0.00 0.00 0.00 71 1009.6
20260505190008 18 168 6.4 22.5 0.00 0.00 0.00 71 1009.8
20260505184502 18 151 6.4 25.7 0.00 0.00 0.00 71 1010.2
20260505183059 18 227 6.4 17.7 0.00 0.00 0.00 70 1010.3
20260505181553 18 161 6.4 22.5 0.00 0.00 0.00 71 1010.5
20260505180049 18 103 4.8 17.7 0.00 0.00 0.00 72 1010.5
20260505174544 18 148 6.4 19.3 0.00 0.00 0.00 72 1010.6
20260505173040 18 167 4.8 19.3 0.00 0.00 0.00 71 1010.7
20260505171544 19 177 1.6 19.3 0.00 0.00 0.00 70 1010.8
20260505170039 19 158 3.2 17.7 0.00 0.00 0.00 69 1010.8
20260505164553 20 231 1.6 14.5 0.00 0.00 0.00 69 1010.9
20260505163037 19 134 1.6 12.9 0.00 0.00 0.00 70 1010.9
20260505161548 20 252 3.2 12.9 0.00 0.00 0.00 68 1011.2
20260505153024 19 128 1.6 8.0 0.00 0.00 0.00 71 1011.4
20260505151519 18 127 3.2 14.5 0.00 0.00 0.00 72 1011.6
20260505124559 16 139 0.0 8.0 0.00 0.00 0.00 83 1011.2
20260505123055 15 142 1.6 6.4 0.00 0.00 0.00 87 1011.2
20260505121546 13 143 1.6 6.4 0.00 0.00 0.00 89 1011.2
20260505120059 13 144 0.0 6.4 0.00 0.00 0.00 91 1011.4
20260505114541 13 146 3.2 9.7 0.00 0.00 0.00 92 1011.5
20260505113045 12 151 0.0 4.8 0.00 0.00 0.00 93 1011.5
20260505111538 12 159 0.0 3.2 0.00 0.00 0.00 95 1011.4
20260505101534 11 159 0.0 4.8 0.00 0.00 0.00 94 1010.6
20260505100133 11 159 0.0 4.8 0.00 0.00 0.00 94 1010.5
20260505094531 11 159 0.0 3.2 0.00 0.00 0.00 93 1010.4
20260505093029 11 159 0.0 0.0 0.00 0.00 0.00 93 1010.5
20260505091528 11 159 0.0 1.6 0.00 0.00 0.00 93 1010.5
20260505090027 11 159 0.0 6.4 0.00 0.00 0.00 93 1010.6
20260505084541 11 159 0.0 1.6 0.00 0.00 0.00 92 1010.5
20260505083023 11 159 1.6 9.7 0.00 0.00 0.00 92 1010.4
20260505081523 11 164 0.0 4.8 0.00 0.00 0.00 92 1010.7
20260505080022 11 163 1.6 11.3 0.00 0.00 0.00 92 1010.6
20260505074521 11 171 0.0 4.8 0.00 0.00 0.00 92 1010.4
20260505073021 11 159 0.0 8.0 0.00 0.00 0.00 92 1010.5
20260505071520 11 157 0.0 8.0 0.00 0.00 0.00 91 1010.5
20260505070018 11 156 0.0 8.0 0.00 0.00 0.00 91 1010.4
20260505064519 12 168 0.0 4.8 0.00 0.00 0.00 91 1010.5
20260505063015 12 160 0.0 4.8 0.00 0.00 0.00 91 1010.6
20260505061519 12 150 0.0 8.0 0.00 0.00 0.00 91 1010.7
20260505060012 12 142 1.6 12.9 0.00 0.00 0.00 90 1010.8
20260505054510 12 161 1.6 11.3 0.00 0.00 0.00 90 1010.9
20260505053008 12 146 0.0 11.3 0.00 0.00 0.00 90 1011.0
20260505051515 12 144 0.0 9.7 0.00 0.00 0.00 89 1011.0
20260505041502 12 159 1.6 11.3 0.00 0.00 0.00 86 1011.3
20260505040059 12 153 0.0 11.3 0.00 0.00 0.00 85 1011.3
20260505034616 13 166 1.6 12.9 0.00 0.00 0.00 84 1011.2
20260505033057 13 157 0.0 12.9 0.00 0.00 0.00 83 1011.2
20260505031558 13 151 0.0 4.8 0.00 0.00 0.00 82 1011.3
20260505030056 13 155 0.0 8.0 0.00 0.00 0.00 83 1011.3
20260505024555 13 155 0.0 8.0 0.00 0.00 0.00 83 1011.4
20260505023058 13 169 0.0 9.7 0.00 0.00 0.00 82 1011.4
20260505021555 13 171 1.6 9.7 0.00 0.00 0.00 82 1011.5
20260505020058 13 159 1.6 11.3 0.00 0.00 0.00 83 1011.4